Weather History for Hollywood, FL

Change the Weather History Date:

Saturday, July 7, 2012

  Actual Average (KFLL) Record (KFLL)
Temperature  
Mean Temperature 83 °F 84 °F  
Max Temperature 91 °F 90 °F 97 °F (2009)
Min Temperature 75 °F 78 °F 68 °F (1950)
Degree Days  
Heating Degree Days 0 0  
Month to date heating degree days 0  
Since 1 June heating degree days 0  
Since 1 July heating degree days 0  
Cooling Degree Days 18 19  
Month to date cooling degree days 133  
Year to date cooling degree days 2094  
Since 1 June cooling degree days 676  
Growing Degree Days 33 (Base 50)    
Moisture  
Dew Point 73 °F    
Average Humidity 73    
Maximum Humidity 94    
Minimum Humidity 55    
Precipitation  
Precipitation 0.06 in 0.21 in 2.60 in (1941)
Month to date precipitation 1.58  
Year to date precipitation 29.23  
Snow  
Snow 0.00 in - - ()
Month to date snowfall  
Since 1 June snowfall  
Since 1 July snowfall  
Snow Depth -    
Sea Level Pressure  
Sea Level Pressure 30.08 in    
Wind  
Wind Speed 7 mph (ENE)    
Max Wind Speed 17 mph    
Max Gust Speed 24 mph    
Visibility 10 miles    
Events Rain , Thunderstorm    
T = Trace of Precipitation, MM = Missing Value Source: NWS Daily Summary

Daily Weather History Graph

Daily Weather History Graph

Search for Another Location

Airport:

Trip Planner

Search our weather history database for the weather conditions in past years. The results will help you decide how hot, cold, wet, or windy it might be!

Date:

Astronomy

Jul. 07, 2012 Rise Set
Actual Time 6:35 AM EDT 8:16 PM EDT
Civil Twilight 6:09 AM EDT 8:42 PM EDT
Nautical Twilight 5:38 AM EDT 9:13 PM EDT
Astronomical Twilight 5:05 AM EDT 9:45 PM EDT
Moon 11:07 PM EDT (7/7) 10:29 AM EDT (7/7)
Length of Visible Light 14h 33m
Length of Day
13h 41m
Waning Gibbous, 82% of the Moon is Illuminated
Jul 7
Waning Gibbous
Jul 10
Last Quarter
Jul 19
New
Jul 26
First Quarter
Aug 1
Full

Hourly Weather History & Observations

Time (EDT) Temp. Heat Index Dew Point Humidity Pressure Visibility Wind Dir Wind Speed Gust Speed Precip Events Conditions
12:53 AM 82.9 °F 88.8 °F 73.0 °F 72% 30.08 in 10.0 mi SE 9.2 mph - N/A   Clear
1:53 AM 82.0 °F 87.4 °F 73.0 °F 74% 30.07 in 10.0 mi SE 6.9 mph - N/A   Clear
2:53 AM 82.0 °F 87.4 °F 73.0 °F 74% 30.06 in 10.0 mi Calm Calm - N/A   Scattered Clouds
3:53 AM 80.1 °F 85.1 °F 75.0 °F 85% 30.06 in 10.0 mi West 3.5 mph - N/A Thunderstorm Mostly Cloudy
4:03 AM 80.6 °F 86.2 °F 75.2 °F 84% 30.06 in 7.0 mi NNE 11.5 mph - 0.01 in Rain , Thunderstorm Light Rain
4:12 AM 78.8 °F - 71.6 °F 78% 30.06 in 6.0 mi North 5.8 mph - 0.01 in Rain Light Rain
4:24 AM 77.0 °F - 71.6 °F 83% 30.06 in 9.0 mi NE 6.9 mph - 0.02 in Rain , Thunderstorm Light Thunderstorms and Rain
4:39 AM 75.2 °F - 71.6 °F 89% 30.05 in 7.0 mi NNE 5.8 mph - 0.04 in Rain Light Rain
4:53 AM 75.0 °F - 73.0 °F 94% 30.05 in 7.0 mi Calm Calm - 0.06 in Rain Light Rain
5:53 AM 77.0 °F - 73.9 °F 90% 30.04 in 10.0 mi North 3.5 mph - 0.00 in   Clear
6:53 AM 77.0 °F - 73.0 °F 88% 30.04 in 10.0 mi North 4.6 mph - N/A   Clear
7:53 AM 79.0 °F - 73.9 °F 84% 30.06 in 10.0 mi North 4.6 mph - N/A   Clear
8:53 AM 84.0 °F 91.9 °F 75.0 °F 74% 30.08 in 10.0 mi NNE 3.5 mph - N/A   Clear
9:53 AM 87.1 °F 96.3 °F 75.0 °F 67% 30.08 in 10.0 mi NE 9.2 mph - N/A   Clear
10:53 AM 87.1 °F 96.3 °F 75.0 °F 67% 30.10 in 10.0 mi East 12.7 mph - N/A   Scattered Clouds
11:53 AM 89.1 °F 97.0 °F 73.0 °F 59% 30.12 in 10.0 mi East 13.8 mph - N/A   Scattered Clouds
12:53 PM 90.0 °F 99.0 °F 73.9 °F 59% 30.11 in 10.0 mi East 12.7 mph 21.9 mph N/A   Mostly Cloudy
1:53 PM 90.0 °F 97.9 °F 73.0 °F 57% 30.11 in 10.0 mi ENE 10.4 mph 20.7 mph N/A   Partly Cloudy
2:53 PM 90.0 °F 96.9 °F 72.0 °F 55% 30.09 in 10.0 mi East 13.8 mph - N/A   Partly Cloudy
3:53 PM 91.0 °F 99.3 °F 73.0 °F 55% 30.08 in 10.0 mi East 11.5 mph - N/A   Partly Cloudy
4:53 PM 89.1 °F 98.0 °F 73.9 °F 61% 30.07 in 10.0 mi East 17.3 mph 24.2 mph N/A   Scattered Clouds
5:53 PM 87.1 °F 93.6 °F 72.0 °F 61% 30.05 in 10.0 mi East 13.8 mph - N/A   Clear
6:53 PM 86.0 °F 92.2 °F 72.0 °F 63% 30.05 in 10.0 mi East 9.2 mph - N/A   Clear
7:53 PM 82.9 °F 88.0 °F 72.0 °F 69% 30.07 in 10.0 mi ESE 9.2 mph - N/A   Clear
8:53 PM 82.0 °F 87.4 °F 73.0 °F 74% 30.09 in 10.0 mi East 8.1 mph - N/A   Clear
9:53 PM 82.0 °F 87.9 °F 73.9 °F 76% 30.10 in 10.0 mi ESE 4.6 mph - N/A   Clear
10:53 PM 82.0 °F 87.4 °F 73.0 °F 74% 30.11 in 10.0 mi SE 4.6 mph - N/A   Clear
11:53 PM 81.0 °F 85.8 °F 73.0 °F 77% 30.11 in 10.0 mi ESE 3.5 mph - N/A   Clear